| time (UTC) | temp F | wind direction | speed MPH | gust MPH | rain 1hr in | rain 24hr in | rain mn in | humidity % | barometer mb |
| 20260504211527 | 75 | 277 | 1.0 | 11.0 | 0.00 | 0.00 | 0.00 | 20 | 998.8 |
| 20260504211026 | 75 | 262 | 0.0 | 17.0 | 0.00 | 0.00 | 0.00 | 20 | 998.9 |
| 20260504210525 | 75 | 274 | 2.0 | 16.0 | 0.00 | 0.00 | 0.00 | 19 | 999.0 |
| 20260504210025 | 75 | 270 | 2.0 | 12.0 | 0.00 | 0.00 | 0.00 | 20 | 998.8 |
| 20260504205524 | 75 | 266 | 1.0 | 10.0 | 0.00 | 0.00 | 0.00 | 20 | 999.0 |
| 20260504205022 | 75 | 272 | 0.0 | 15.0 | 0.00 | 0.00 | 0.00 | 20 | 999.1 |
| 20260504204523 | 74 | 270 | 0.0 | 21.0 | 0.00 | 0.00 | 0.00 | 20 | 999.0 |
| 20260504204022 | 74 | 256 | 1.0 | 21.0 | 0.00 | 0.00 | 0.00 | 21 | 998.9 |
| 20260504203521 | 73 | 271 | 1.0 | 14.0 | 0.00 | 0.00 | 0.00 | 21 | 999.1 |
| 20260504203021 | 72 | 268 | 0.0 | 9.0 | 0.00 | 0.00 | 0.00 | 23 | 999.3 |
| 20260504202521 | 71 | 266 | 1.0 | 9.0 | 0.00 | 0.00 | 0.00 | 21 | 999.3 |
| 20260504202021 | 70 | 223 | 0.0 | 3.0 | 0.00 | 0.00 | 0.00 | 23 | 999.3 |
| 20260504201522 | 69 | 150 | 0.0 | 5.0 | 0.00 | 0.00 | 0.00 | 23 | 999.3 |
| 20260504201019 | 69 | 148 | 1.0 | 5.0 | 0.00 | 0.00 | 0.00 | 23 | 999.4 |
| 20260504200519 | 69 | 148 | 0.0 | 8.0 | 0.00 | 0.00 | 0.00 | 21 | 999.4 |
| 20260504200033 | 69 | 148 | 2.0 | 14.0 | 0.00 | 0.00 | 0.00 | 22 | 999.5 |
| 20260504195518 | 69 | 147 | 4.0 | 13.0 | 0.00 | 0.00 | 0.00 | 23 | 999.6 |
| 20260504195018 | 70 | 129 | 4.0 | 13.0 | 0.00 | 0.00 | 0.00 | 22 | 999.7 |
| 20260504194520 | 70 | 280 | 0.0 | 10.0 | 0.00 | 0.00 | 0.00 | 22 | 999.5 |
| 20260504194018 | 70 | 148 | 3.0 | 10.0 | 0.00 | 0.00 | 0.00 | 21 | 999.5 |
| 20260504193519 | 70 | 269 | 0.0 | 4.0 | 0.00 | 0.00 | 0.00 | 21 | 999.4 |
| 20260504193018 | 70 | 272 | 0.0 | 9.0 | 0.00 | 0.00 | 0.00 | 23 | 999.5 |
| 20260504192517 | 69 | 290 | 0.0 | 9.0 | 0.00 | 0.00 | 0.00 | 24 | 999.5 |
| 20260504192017 | 69 | 279 | 0.0 | 16.0 | 0.00 | 0.00 | 0.00 | 21 | 999.5 |
| 20260504191528 | 69 | 269 | 0.0 | 8.0 | 0.00 | 0.00 | 0.00 | 22 | 999.4 |
| 20260504191017 | 69 | 268 | 0.0 | 9.0 | 0.00 | 0.00 | 0.00 | 22 | 999.5 |
| 20260504190517 | 69 | 277 | 1.0 | 9.0 | 0.00 | 0.00 | 0.00 | 20 | 999.6 |
| 20260504190016 | 70 | 271 | 0.0 | 11.0 | 0.00 | 0.00 | 0.00 | 21 | 999.5 |
| 20260504185515 | 70 | 269 | 1.0 | 16.0 | 0.00 | 0.00 | 0.00 | 20 | 999.5 |
| 20260504185015 | 71 | 253 | 4.0 | 16.0 | 0.00 | 0.00 | 0.00 | 19 | 999.4 |
| 20260504184515 | 71 | 264 | 0.0 | 16.0 | 0.00 | 0.00 | 0.00 | 19 | 999.4 |
| 20260504184015 | 72 | 268 | 0.0 | 10.0 | 0.00 | 0.00 | 0.00 | 20 | 999.4 |
| 20260504183514 | 72 | 274 | 1.0 | 10.0 | 0.00 | 0.00 | 0.00 | 20 | 999.5 |
| 20260504183032 | 73 | 274 | 0.0 | 8.0 | 0.00 | 0.00 | 0.00 | 18 | 999.5 |
| 20260504182514 | 73 | 274 | 0.0 | 8.0 | 0.00 | 0.00 | 0.00 | 18 | 999.6 |
| 20260504182013 | 74 | 273 | 0.0 | 5.0 | 0.00 | 0.00 | 0.00 | 18 | 999.5 |
| 20260504181522 | 75 | 269 | 0.0 | 7.0 | 0.00 | 0.00 | 0.00 | 17 | 999.6 |
| 20260504181012 | 75 | 269 | 0.0 | 10.0 | 0.00 | 0.00 | 0.00 | 18 | 999.7 |
| 20260504180516 | 75 | 266 | 1.0 | 10.0 | 0.00 | 0.00 | 0.00 | 18 | 999.6 |
| 20260504180010 | 75 | 244 | 0.0 | 3.0 | 0.00 | 0.00 | 0.00 | 17 | 999.7 |
| 20260504175510 | 76 | 244 | 0.0 | 15.0 | 0.00 | 0.00 | 0.00 | 17 | 999.8 |
| 20260504175009 | 76 | 252 | 3.0 | 15.0 | 0.00 | 0.00 | 0.00 | 18 | 999.9 |
| 20260504174512 | 76 | 258 | 1.0 | 10.0 | 0.00 | 0.00 | 0.00 | 18 | 1000.0 |
| 20260504174007 | 76 | 266 | 0.0 | 5.0 | 0.00 | 0.00 | 0.00 | 16 | 1000.1 |
| 20260504173508 | 75 | 266 | 0.0 | 5.0 | 0.00 | 0.00 | 0.00 | 17 | 1000.3 |
| 20260504173005 | 75 | 264 | 1.0 | 14.0 | 0.00 | 0.00 | 0.00 | 19 | 1000.4 |
| 20260504172605 | 74 | 272 | 1.0 | 15.0 | 0.00 | 0.00 | 0.00 | 18 | 1000.3 |
| 20260504172004 | 74 | 272 | 4.0 | 15.0 | 0.00 | 0.00 | 0.00 | 20 | 1000.4 |
| 20260504171502 | 74 | 259 | 0.0 | 10.0 | 0.00 | 0.00 | 0.00 | 19 | 1000.4 |
| 20260504171005 | 74 | 252 | 0.0 | 14.0 | 0.00 | 0.00 | 0.00 | 18 | 1000.6 |
| 20260504170501 | 74 | 254 | 3.0 | 14.0 | 0.00 | 0.00 | 0.00 | 20 | 1000.7 |
| 20260504170110 | 74 | 259 | 1.0 | 10.0 | 0.00 | 0.00 | 0.00 | 21 | 1000.7 |
| 20260504151035 | 66 | 250 | 8.0 | 17.0 | 0.00 | 0.00 | 0.00 | 25 | 1001.7 |
| 20260504150533 | 65 | 258 | 3.0 | 13.0 | 0.00 | 0.00 | 0.00 | 25 | 1001.8 |
| 20260504141017 | 53 | 279 | 0.0 | 0.0 | 0.00 | 0.00 | 0.00 | 41 | 1002.0 |
| 20260504140515 | 52 | 279 | 0.0 | 0.0 | 0.00 | 0.00 | 0.00 | 40 | 1002.0 |
| 20260504130505 | 45 | 279 | 0.0 | 0.0 | 0.00 | 0.00 | 0.00 | 57 | 1002.0 |
| 20260504110553 | 39 | 279 | 0.0 | 0.0 | 0.00 | 0.00 | 0.00 | 64 | 1002.1 |
| 20260504100545 | 39 | 280 | 0.0 | 0.0 | 0.00 | 0.00 | 0.00 | 64 | 1002.4 |
| 20260504081524 | 46 | 279 | 0.0 | 0.0 | 0.00 | 0.00 | 0.00 | 50 | 1002.9 |
| 20260504081022 | 47 | 279 | 0.0 | 0.0 | 0.00 | 0.00 | 0.00 | 49 | 1003.0 |
| 20260504080520 | 47 | 279 | 0.0 | 0.0 | 0.00 | 0.00 | 0.00 | 48 | 1002.9 |
| 20260504050556 | 53 | 279 | 0.0 | 0.0 | 0.00 | 0.00 | 0.00 | 40 | 1003.4 |
| 20260504045554 | 54 | 279 | 0.0 | 0.0 | 0.00 | 0.00 | 0.00 | 41 | 1003.5 |
| 20260504045054 | 54 | 279 | 0.0 | 0.0 | 0.00 | 0.00 | 0.00 | 39 | 1003.6 |
| 20260504044602 | 54 | 279 | 0.0 | 0.0 | 0.00 | 0.00 | 0.00 | 40 | 1003.6 |
| 20260504044054 | 54 | 279 | 0.0 | 0.0 | 0.00 | 0.00 | 0.00 | 41 | 1003.7 |
| 20260504043554 | 54 | 279 | 0.0 | 0.0 | 0.00 | 0.00 | 0.00 | 39 | 1003.8 |
| 20260504043055 | 54 | 279 | 0.0 | 0.0 | 0.00 | 0.00 | 0.00 | 40 | 1003.8 |
| 20260504042554 | 54 | 279 | 0.0 | 0.0 | 0.00 | 0.00 | 0.00 | 40 | 1003.9 |
| 20260504042058 | 54 | 279 | 0.0 | 0.0 | 0.00 | 0.00 | 0.00 | 40 | 1004.0 |
| 20260504041554 | 54 | 279 | 0.0 | 0.0 | 0.00 | 0.00 | 0.00 | 41 | 1004.0 |
| 20260504041055 | 55 | 279 | 0.0 | 0.0 | 0.00 | 0.00 | 0.00 | 40 | 1003.8 |
| 20260504040553 | 55 | 279 | 0.0 | 0.0 | 0.00 | 0.00 | 0.00 | 40 | 1003.9 |
| 20260504040103 | 55 | 279 | 0.0 | 0.0 | 0.00 | 0.00 | 0.00 | 42 | 1004.1 |
| 20260504035552 | 56 | 279 | 0.0 | 0.0 | 0.00 | 0.00 | 0.00 | 40 | 1004.1 |
| 20260504035056 | 56 | 279 | 0.0 | 0.0 | 0.00 | 0.00 | 0.00 | 39 | 1004.1 |
| 20260504034559 | 56 | 279 | 0.0 | 0.0 | 0.00 | 0.00 | 0.00 | 38 | 1004.1 |
| 20260504034052 | 56 | 279 | 0.0 | 0.0 | 0.00 | 0.00 | 0.00 | 37 | 1004.1 |
| 20260504033552 | 56 | 279 | 0.0 | 0.0 | 0.00 | 0.00 | 0.00 | 37 | 1004.1 |
| 20260504033125 | 56 | 279 | 0.0 | 0.0 | 0.00 | 0.00 | 0.00 | 36 | 1004.0 |
| 20260504032552 | 57 | 279 | 0.0 | 0.0 | 0.00 | 0.00 | 0.00 | 37 | 1004.0 |
| 20260504032051 | 57 | 279 | 0.0 | 0.0 | 0.00 | 0.00 | 0.00 | 35 | 1004.1 |
| 20260504031551 | 57 | 279 | 0.0 | 0.0 | 0.00 | 0.00 | 0.00 | 34 | 1004.1 |
| 20260504031051 | 57 | 279 | 0.0 | 0.0 | 0.00 | 0.00 | 0.00 | 34 | 1004.0 |
| 20260504030550 | 58 | 279 | 0.0 | 0.0 | 0.00 | 0.00 | 0.00 | 34 | 1004.0 |
| 20260504030051 | 58 | 279 | 0.0 | 0.0 | 0.00 | 0.00 | 0.00 | 32 | 1004.0 |
| 20260504025550 | 59 | 279 | 0.0 | 0.0 | 0.00 | 0.00 | 0.00 | 35 | 1003.9 |
| 20260504025050 | 59 | 279 | 0.0 | 0.0 | 0.00 | 0.00 | 0.00 | 32 | 1003.9 |
| 20260504024550 | 59 | 279 | 0.0 | 0.0 | 0.00 | 0.00 | 0.00 | 32 | 1003.9 |
| 20260504024049 | 60 | 279 | 0.0 | 0.0 | 0.00 | 0.00 | 0.00 | 33 | 1003.9 |
| 20260504023549 | 60 | 279 | 0.0 | 0.0 | 0.00 | 0.00 | 0.00 | 31 | 1003.9 |
| 20260504023100 | 60 | 279 | 0.0 | 0.0 | 0.00 | 0.00 | 0.00 | 30 | 1004.0 |
| 20260504022549 | 60 | 279 | 0.0 | 0.0 | 0.00 | 0.00 | 0.00 | 29 | 1003.9 |
| 20260504022048 | 61 | 279 | 0.0 | 1.0 | 0.00 | 0.00 | 0.00 | 29 | 1004.0 |
| 20260504021551 | 61 | 279 | 0.0 | 1.0 | 0.00 | 0.00 | 0.00 | 29 | 1004.0 |
| 20260504021048 | 61 | 279 | 0.0 | 0.0 | 0.00 | 0.00 | 0.00 | 28 | 1004.0 |
| 20260504020548 | 62 | 279 | 0.0 | 0.0 | 0.00 | 0.00 | 0.00 | 27 | 1004.0 |
| 20260504020056 | 62 | 279 | 0.0 | 0.0 | 0.00 | 0.00 | 0.00 | 27 | 1003.9 |
| 20260504015548 | 62 | 279 | 0.0 | 0.0 | 0.00 | 0.00 | 0.00 | 27 | 1003.9 |
| 20260504015047 | 63 | 279 | 0.0 | 0.0 | 0.00 | 0.00 | 0.00 | 27 | 1003.9 |
| 20260504014550 | 63 | 279 | 0.0 | 0.0 | 0.00 | 0.00 | 0.00 | 26 | 1003.8 |
| 20260504014047 | 63 | 279 | 0.0 | 0.0 | 0.00 | 0.00 | 0.00 | 26 | 1003.8 |
| 20260504013547 | 63 | 279 | 0.0 | 0.0 | 0.00 | 0.00 | 0.00 | 25 | 1003.8 |
| 20260504013058 | 64 | 279 | 0.0 | 0.0 | 0.00 | 0.00 | 0.00 | 26 | 1003.8 |
| 20260504012549 | 64 | 279 | 0.0 | 0.0 | 0.00 | 0.00 | 0.00 | 25 | 1003.8 |
| 20260504012047 | 64 | 279 | 0.0 | 0.0 | 0.00 | 0.00 | 0.00 | 25 | 1003.8 |
| 20260504011547 | 64 | 279 | 0.0 | 5.0 | 0.00 | 0.00 | 0.00 | 25 | 1003.7 |
| 20260504011047 | 64 | 279 | 0.0 | 5.0 | 0.00 | 0.00 | 0.00 | 24 | 1003.7 |
| 20260504010546 | 65 | 279 | 0.0 | 11.0 | 0.00 | 0.00 | 0.00 | 24 | 1003.7 |
| 20260504010053 | 65 | 277 | 1.0 | 9.0 | 0.00 | 0.00 | 0.00 | 24 | 1003.7 |
| 20260504005546 | 65 | 272 | 0.0 | 9.0 | 0.00 | 0.00 | 0.00 | 23 | 1003.7 |
| 20260504005045 | 66 | 281 | 1.0 | 8.0 | 0.00 | 0.00 | 0.00 | 23 | 1003.7 |
| 20260504004559 | 66 | 276 | 0.0 | 6.0 | 0.00 | 0.00 | 0.00 | 23 | 1003.7 |
| 20260504004045 | 66 | 276 | 0.0 | 6.0 | 0.00 | 0.00 | 0.00 | 23 | 1003.7 |
| 20260504003545 | 66 | 279 | 0.0 | 6.0 | 0.00 | 0.00 | 0.00 | 23 | 1003.7 |
| 20260504003045 | 67 | 279 | 0.0 | 6.0 | 0.00 | 0.00 | 0.00 | 23 | 1003.7 |
| 20260504002545 | 67 | 279 | 0.0 | 6.0 | 0.00 | 0.00 | 0.00 | 23 | 1003.7 |
| 20260504002045 | 67 | 279 | 0.0 | 5.0 | 0.00 | 0.00 | 0.00 | 22 | 1003.6 |
| 20260504001545 | 68 | 280 | 0.0 | 9.0 | 0.00 | 0.00 | 0.00 | 22 | 1003.6 |
| 20260504001046 | 68 | 279 | 0.0 | 11.0 | 0.00 | 0.00 | 0.00 | 21 | 1003.6 |
| 20260504000545 | 68 | 281 | 0.0 | 12.0 | 0.00 | 0.00 | 0.00 | 21 | 1003.5 |
| 20260504000044 | 69 | 283 | 1.0 | 9.0 | 0.00 | 0.00 | 0.00 | 20 | 1003.5 |
| 20260503235642 | 69 | 279 | 2.0 | 9.0 | 0.00 | 0.00 | 0.00 | 19 | 1003.5 |
| 20260503235042 | 69 | 274 | 0.0 | 7.0 | 0.00 | 0.00 | 0.00 | 19 | 1003.6 |
| 20260503234546 | 69 | 274 | 0.0 | 9.0 | 0.00 | 0.00 | 0.00 | 18 | 1003.6 |
| 20260503234043 | 69 | 278 | 1.0 | 9.0 | 0.00 | 0.00 | 0.00 | 18 | 1003.6 |
| 20260503233545 | 69 | 272 | 1.0 | 9.0 | 0.00 | 0.00 | 0.00 | 18 | 1003.6 |
| 20260503233042 | 70 | 274 | 2.0 | 9.0 | 0.00 | 0.00 | 0.00 | 18 | 1003.6 |
| 20260503232545 | 70 | 272 | 0.0 | 7.0 | 0.00 | 0.00 | 0.00 | 17 | 1003.6 |
| 20260503232041 | 70 | 272 | 0.0 | 5.0 | 0.00 | 0.00 | 0.00 | 18 | 1003.6 |
| 20260503231542 | 70 | 268 | 0.0 | 5.0 | 0.00 | 0.00 | 0.00 | 17 | 1003.6 |
| 20260503231042 | 70 | 253 | 0.0 | 6.0 | 0.00 | 0.00 | 0.00 | 17 | 1003.6 |
| 20260503230542 | 70 | 283 | 0.0 | 7.0 | 0.00 | 0.00 | 0.00 | 16 | 1003.5 |
| 20260503230041 | 70 | 288 | 0.0 | 7.0 | 0.00 | 0.00 | 0.00 | 16 | 1003.5 |
| 20260503225539 | 71 | 276 | 0.0 | 0.0 | 0.00 | 0.00 | 0.00 | 18 | 1003.5 |
| 20260503225039 | 71 | 276 | 0.0 | 2.0 | 0.00 | 0.00 | 0.00 | 16 | 1003.6 |
| 20260503224538 | 71 | 276 | 0.0 | 2.0 | 0.00 | 0.00 | 0.00 | 16 | 1003.6 |
| 20260503224038 | 71 | 276 | 0.0 | 4.0 | 0.00 | 0.00 | 0.00 | 16 | 1003.7 |
| 20260503223537 | 71 | 277 | 0.0 | 10.0 | 0.00 | 0.00 | 0.00 | 16 | 1003.7 |
| 20260503223037 | 71 | 270 | 1.0 | 10.0 | 0.00 | 0.00 | 0.00 | 15 | 1003.8 |
| 20260503222536 | 71 | 261 | 0.0 | 9.0 | 0.00 | 0.00 | 0.00 | 16 | 1003.9 |
| 20260503222038 | 71 | 261 | 2.0 | 9.0 | 0.00 | 0.00 | 0.00 | 15 | 1003.9 |
| 20260503221541 | 71 | 242 | 0.0 | 11.0 | 0.00 | 0.00 | 0.00 | 15 | 1004.0 |
| 20260503221037 | 72 | 242 | 1.0 | 11.0 | 0.00 | 0.00 | 0.00 | 15 | 1004.0 |
| 20260503220534 | 72 | 250 | 0.0 | 3.0 | 0.00 | 0.00 | 0.00 | 14 | 1004.2 |
| 20260503220033 | 72 | 250 | 0.0 | 8.0 | 0.00 | 0.00 | 0.00 | 15 | 1004.2 |
| 20260503215533 | 72 | 250 | 1.0 | 8.0 | 0.00 | 0.00 | 0.00 | 14 | 1004.3 |
| 20260503215032 | 72 | 250 | 0.0 | 5.0 | 0.00 | 0.00 | 0.00 | 15 | 1004.3 |
| 20260503214533 | 73 | 253 | 1.0 | 10.0 | 0.00 | 0.00 | 0.00 | 15 | 1004.5 |
| 20260503214030 | 73 | 256 | 1.0 | 14.0 | 0.00 | 0.00 | 0.00 | 14 | 1004.6 |
| 20260503213530 | 73 | 262 | 1.0 | 12.0 | 0.00 | 0.00 | 0.00 | 15 | 1004.7 |
| 20260503213036 | 73 | 243 | 0.0 | 1.0 | 0.00 | 0.00 | 0.00 | 17 | 1004.7 |
| 20260503212529 | 73 | 243 | 0.0 | 0.0 | 0.00 | 0.00 | 0.00 | 14 | 1004.9 |
| 20260503212032 | 73 | 243 | 0.0 | 0.0 | 0.00 | 0.00 | 0.00 | 14 | 1004.9 |